DL4NBA-1 Weather Reports


Display with metric or nautical units.
time (UTC)temp
F
wind
direction
speed
MPH
gust
MPH
rain 1hr
in
rain 24hr
in
rain mn
in
humidity
%
barometer
mb
20260902075714 67 121 3.0 3.0 0.00 0.00 0.00
20260902074713 67 125 2.0 1.0 0.00 0.00 0.00
20260902074215 64 117 1.0 1.0 0.00 0.00 0.00
20260902073713 64 15 0.0 0.0 0.00 0.00 0.00
20260902073213 63 15 0.0 0.0 0.00 0.00 0.00
20260902072214 63 228 0.0 0.0 0.00 0.00 0.00
20260902071716 63 228 0.0 0.0 0.00 0.00 0.00
20260902071215 62 228 0.0 0.0 0.00 0.00 0.00
20260902070716 61 283 1.0 1.0 0.00 0.00 0.00
20260902070218 61 97 0.0 0.0 0.00 0.00 0.00
20260902065716 61 97 0.0 0.0 0.00 0.00 0.00
20260902065218 61 135 1.0 1.0 0.00 0.00 0.00
20260902064716 62 152 2.0 1.0 0.00 0.00 0.00
20260902064217 62 103 1.0 0.0 0.00 0.00 0.00
20260902063719 60 165 2.0 2.0 0.00 0.00 0.00
20260902063220 59 159 0.0 0.0 0.00 0.00 0.00
20260902062923 60 148 0.0 1.0 0.00 0.00 0.00
20260902062721 60 148 0.0 1.0 0.00 0.00 0.00
20260902062219 59 200 1.0 1.0 0.00 0.00 0.00
20260902061721 59 152 1.0 0.0 0.00 0.00 0.00
20260902061222 60 135 0.0 0.0 0.00 0.00 0.00
20260902055226 57 135 0.0 0.0 0.00 0.00 0.00
20260902054727 56 135 0.0 0.0 0.00 0.00 0.00
20260902054229 56 135 0.0 0.0 0.00 0.00 0.00
20260902053229 55 135 0.0 0.0 0.00 0.00 0.00
20260902052731 54 135 0.0 0.0 0.00 0.00 0.00
20260902051235 54 135 0.0 0.0 0.00 0.00 0.00
20260902050733 54 135 0.0 0.0 0.00 0.00 0.00
20260902045238 54 135 0.0 0.0 0.00 0.00 0.00
20260902044739 54 135 0.0 0.0 0.00 0.00 0.00
20260902044237 53 135 0.0 0.0 0.00 0.00 0.00
20260902043240 53 135 0.0 0.0 0.00 0.00 0.00
20260902042243 53 135 0.0 0.0 0.00 0.00 0.00
20260902041244 53 135 0.0 0.0 0.00 0.00 0.00
20260902040745 53 135 0.0 0.0 0.00 0.00 0.00
20260902040247 51 135 0.0 0.0 0.00 0.00 0.00
20260902034748 52 135 0.0 0.0 0.00 0.00 0.00
20260902033748 50 135 0.0 0.0 0.00 0.00 0.00
20260902032746 53 135 0.0 0.0 0.00 0.00 0.00
20260902032247 54 135 0.0 0.0 0.00 0.00 0.00
20260902031749 54 135 0.0 0.0 0.00 0.00 0.00
20260902030751 52 135 0.0 0.0 0.00 0.00 0.00
20260902030248 53 135 0.0 0.0 0.00 0.00 0.00
20260902025249 52 135 0.0 0.0 0.00 0.00 0.00
20260902024751 52 135 0.0 0.0 0.00 0.00 0.00
20260902023750 55 135 0.0 0.0 0.00 0.00 0.00
20260902023251 55 135 0.0 0.0 0.00 0.00 0.00
20260902022753 54 135 0.0 0.0 0.00 0.00 0.00
20260902021756 53 135 0.0 0.0 0.00 0.00 0.00
20260902021253 52 135 0.0 0.0 0.00 0.00 0.00
20260902020256 52 135 0.0 0.0 0.00 0.00 0.00
20260902015259 53 135 0.0 0.0 0.00 0.00 0.00
20260902014758 54 135 0.0 0.0 0.00 0.00 0.00
20260902014259 55 135 0.0 0.0 0.00 0.00 0.00
20260902013801 55 135 0.0 0.0 0.00 0.00 0.00
20260902013302 55 135 0.0 0.0 0.00 0.00 0.00
20260902012308 54 135 0.0 0.0 0.00 0.00 0.00
20260902011804 55 135 0.0 0.0 0.00 0.00 0.00
20260902011305 56 135 0.0 0.0 0.00 0.00 0.00
20260902010807 55 135 0.0 0.0 0.00 0.00 0.00
20260902005806 56 135 0.0 0.0 0.00 0.00 0.00
20260902004809 55 135 0.0 0.0 0.00 0.00 0.00
20260902004310 56 135 0.0 0.0 0.00 0.00 0.00
20260902003811 56 135 0.0 0.0 0.00 0.00 0.00
20260902003309 56 142 0.0 1.0 0.00 0.00 0.00
20260902002809 55 183 0.0 0.0 0.00 0.00 0.00
20260902002311 57 183 0.0 0.0 0.00 0.00 0.00
20260902001313 58 183 0.0 0.0 0.00 0.00 0.00
20260902000811 57 183 0.0 0.0 0.00 0.00 0.00
20260902000313 57 183 0.0 0.0 0.00 0.00 0.00
20260901235814 57 183 0.0 0.0 0.00 0.00 0.00
20260901234817 58 183 0.0 0.0 0.00 0.00 0.00
20260901234315 56 229 2.0 3.0 0.00 0.00 0.00
20260901233318 58 159 0.0 0.0 0.00 0.00 0.00
20260901232819 57 159 0.0 0.0 0.00 0.00 0.00
20260901232321 58 159 0.0 0.0 0.00 0.00 0.00
20260901231819 59 159 0.0 0.0 0.00 0.00 0.00
20260901231321 58 159 0.0 0.0 0.00 0.00 0.00
20260901230822 57 159 0.0 0.0 0.00 0.00 0.00
20260901230324 58 159 0.0 0.0 0.00 0.00 0.00
20260901225323 57 159 0.0 0.0 0.00 0.00 0.00
20260901224824 56 218 2.0 1.0 0.00 0.00 0.00
20260901224325 57 242 3.0 3.0 0.00 0.00 0.00
20260901223827 59 127 0.0 0.0 0.00 0.00 0.00
20260901223328 59 127 0.0 0.0 0.00 0.00 0.00
20260901222826 58 158 1.0 1.0 0.00 0.00 0.00
20260901222327 59 210 0.0 0.0 0.00 0.00 0.00
20260901221829 59 210 0.0 0.0 0.00 0.00 0.00
20260901220832 60 210 0.0 0.0 0.00 0.00 0.00
20260901220330 60 210 0.0 0.0 0.00 0.00 0.00
20260901215333 61 176 2.0 1.0 0.00 0.00 0.00
20260901214835 59 191 3.0 3.0 0.00 0.00 0.00
20260901214336 60 188 3.0 3.0 0.00 0.00 0.00
20260901213834 60 159 1.0 2.0 0.00 0.00 0.00
20260901213335 60 198 2.0 1.0 0.00 0.00 0.00
20260901212837 59 194 2.0 2.0 0.00 0.00 0.00
20260901212338 60 156 2.0 1.0 0.00 0.00 0.00
20260901211839 60 203 0.0 0.0 0.00 0.00 0.00
20260901211337 59 203 0.0 0.0 0.00 0.00 0.00
20260901210340 56 266 2.0 1.0 0.00 0.00 0.00
20260901205841 57 285 1.0 1.0 0.00 0.00 0.00
20260901205343 58 228 2.0 3.0 0.00 0.00 0.00
20260901204841 59 249 1.0 2.0 0.00 0.00 0.00
20260901204343 60 183 1.0 0.0 0.00 0.00 0.00
20260901203844 62 191 2.0 2.0 0.00 0.00 0.00
20260901202847 62 174 0.0 2.0 0.00 0.00 0.00
20260901201845 59 194 2.0 3.0 0.00 0.00 0.00
20260901201346 60 204 2.0 2.0 0.00 0.00 0.00
20260901200848 60 198 3.0 3.0 0.00 0.00 0.00
20260901200349 61 203 3.0 2.0 0.00 0.00 0.00
20260901195847 61 200 4.0 3.0 0.00 0.00 0.00
20260901195348 61 228 3.0 4.0 0.00 0.00 0.00
20260901194850 61 184 3.0 2.0 0.00 0.00 0.00
20260901194351 61 184 2.0 2.0 0.00 0.00 0.00
20260901193852 61 191 2.0 2.0 0.00 0.00 0.00
20260901193350 62 188 0.0 2.0 0.00 0.00 0.00
20260901192851 64 179 0.0 0.0 0.00 0.00 0.00
20260901192353 64 179 0.0 0.0 0.00 0.00 0.00
20260901191854 64 179 0.0 0.0 0.00 0.00 0.00
20260901191356 65 179 0.0 0.0 0.00 0.00 0.00
20260901185857 66 179 0.0 0.0 0.00 0.00 0.00
20260901184357 67 179 0.0 0.0 0.00 0.00 0.00
20260901183400 66 179 0.0 0.0 0.00 0.00 0.00
20260901182901 66 179 0.0 0.0 0.00 0.00 0.00
20260901182402 65 179 0.0 0.0 0.00 0.00 0.00
20260901181901 66 179 0.0 0.0 0.00 0.00 0.00
20260901181402 66 215 2.0 0.0 0.00 0.00 0.00
20260901180405 66 229 0.0 0.0 0.00 0.00 0.00
20260901175906 67 243 0.0 2.0 0.00 0.00 0.00
20260901175403 68 250 0.0 0.0 0.00 0.00 0.00
20260901174905 67 250 1.0 0.0 0.00 0.00 0.00
20260901174406 68 200 1.0 1.0 0.00 0.00 0.00
20260901173907 68 246 2.0 0.0 0.00 0.00 0.00
20260901173408 72 249 1.0 0.0 0.00 0.00 0.00
20260901172905 74 283 2.0 2.0 0.00 0.00 0.00
20260901172407 73 276 4.0 3.0 0.00 0.00 0.00
20260901171907 72 266 5.0 4.0 0.00 0.00 0.00
20260901171444 74 301 5.0 4.0 0.00 0.00 0.00
20260901171408 74 301 5.0 4.0 0.00 0.00 0.00
20260901165909 76 294 7.0 6.0 0.00 0.00 0.00
20260901165410 76 271 7.0 7.0 0.00 0.00 0.00
20260901165032 76 284 7.0 9.0 0.00 0.00 0.00
20260901164911 76 284 7.0 9.0 0.00 0.00 0.00
20260901164412 77 248 5.0 5.0 0.00 0.00 0.00
20260901163909 76 235 4.0 6.0 0.00 0.00 0.00
20260901163410 73 278 4.0 4.0 0.00 0.00 0.00
20260901162911 72 225 7.0 4.0 0.00 0.00 0.00
20260901162412 72 219 7.0 7.0 0.00 0.00 0.00
20260901161913 72 210 6.0 8.0 0.00 0.00 0.00
20260901161412 72 249 8.0 6.0 0.00 0.00 0.00
20260901160912 74 235 6.0 2.0 0.00 0.00 0.00
20260901160414 74 232 6.0 5.0 0.00 0.00 0.00
20260901154914 74 238 8.0 7.0 0.00 0.00 0.00
20260901154415 74 215 7.0 9.0 0.00 0.00 0.00
20260901153417 75 201 11.0 15.0 0.00 0.00 0.00
20260901152918 76 312 3.0 4.0 0.00 0.00 0.00
20260901152415 75 239 6.0 7.0 0.00 0.00 0.00
20260901152022 73 221 5.0 6.0 0.00 0.00 0.00
20260901151917 73 221 5.0 6.0 0.00 0.00 0.00
20260901151418 74 260 10.0 6.0 0.00 0.00 0.00
20260901150919 74 200 9.0 6.0 0.00 0.00 0.00
20260901150420 74 226 4.0 5.0 0.00 0.00 0.00
20260901145917 73 224 8.0 10.0 0.00 0.00 0.00
20260901145418 75 218 8.0 7.0 0.00 0.00 0.00
20260901144919 74 304 6.0 4.0 0.00 0.00 0.00
20260901144420 73 255 9.0 9.0 0.00 0.00 0.00
20260901143921 75 294 8.0 9.0 0.00 0.00 0.00
20260901143418 75 311 7.0 4.0 0.00 0.00 0.00
20260901142919 72 239 8.0 7.0 0.00 0.00 0.00
20260901142420 73 252 6.0 11.0 0.00 0.00 0.00
20260901142009 76 219 6.0 5.0 0.00 0.00 0.00
20260901141921 76 219 6.0 5.0 0.00 0.00 0.00
20260901141422 76 184 8.0 8.0 0.00 0.00 0.00
20260901140920 75 173 6.0 4.0 0.00 0.00 0.00
20260901140421 72 229 9.0 6.0 0.00 0.00 0.00
20260901135922 76 218 7.0 6.0 0.00 0.00 0.00
20260901135423 75 262 6.0 9.0 0.00 0.00 0.00
20260901134924 75 252 2.0 5.0 0.00 0.00 0.00
20260901134422 74 179 9.0 8.0 0.00 0.00 0.00
20260901133923 73 288 5.0 4.0 0.00 0.00 0.00
20260901133424 73 278 9.0 9.0 0.00 0.00 0.00
20260901132925 76 255 5.0 6.0 0.00 0.00 0.00
20260901132426 75 335 6.0 4.0 0.00 0.00 0.00
20260901131923 73 200 8.0 9.0 0.00 0.00 0.00
20260901131424 73 231 9.0 9.0 0.00 0.00 0.00
20260901130926 73 271 9.0 10.0 0.00 0.00 0.00
20260901130427 73 181 4.0 3.0 0.00 0.00 0.00
20260901125928 74 232 6.0 9.0 0.00 0.00 0.00
20260901124927 75 307 6.0 7.0 0.00 0.00 0.00
20260901124429 75 287 8.0 11.0 0.00 0.00 0.00
20260901123930 74 285 8.0 10.0 0.00 0.00 0.00
20260901123431 74 294 9.0 6.0 0.00 0.00 0.00
20260901122928 75 232 6.0 4.0 0.00 0.00 0.00
20260901122429 76 250 5.0 7.0 0.00 0.00 0.00
20260901121431 76 259 5.0 7.0 0.00 0.00 0.00
20260901120429 73 248 5.0 9.0 0.00 0.00 0.00
20260901115931 74 249 6.0 4.0 0.00 0.00 0.00
20260901115432 74 193 7.0 13.0 0.00 0.00 0.00
20260901114933 74 222 8.0 4.0 0.00 0.00 0.00
20260901114435 74 281 6.0 3.0 0.00 0.00 0.00
20260901113933 73 249 8.0 5.0 0.00 0.00 0.00
20260901113434 73 228 5.0 9.0 0.00 0.00 0.00
20260901112936 74 288 6.0 6.0 0.00 0.00 0.00
20260901112437 70 221 5.0 10.0 0.00 0.00 0.00
20260901111938 71 259 6.0 3.0 0.00 0.00 0.00
20260901111436 71 219 7.0 8.0 0.00 0.00 0.00
20260901110937 69 221 6.0 9.0 0.00 0.00 0.00
20260901110438 70 242 6.0 7.0 0.00 0.00 0.00
20260901105940 72 260 9.0 10.0 0.00 0.00 0.00
20260901105441 71 226 9.0 5.0 0.00 0.00 0.00
20260901104940 71 239 9.0 10.0 0.00 0.00 0.00
20260901104441 70 242 8.0 10.0 0.00 0.00 0.00
20260901103942 70 256 8.0 5.0 0.00 0.00 0.00
20260901103444 70 205 8.0 5.0 0.00 0.00 0.00
20260901102945 71 229 9.0 5.0 0.00 0.00 0.00
20260901102442 70 238 7.0 9.0 0.00 0.00 0.00
20260901101944 69 262 7.0 9.0 0.00 0.00 0.00
20260901101445 71 273 10.0 9.0 0.00 0.00 0.00
20260901100448 71 246 9.0 9.0 0.00 0.00 0.00
20260901095945 69 218 7.0 6.0 0.00 0.00 0.00
20260901095447 70 259 8.0 8.0 0.00 0.00 0.00
20260901094948 71 273 11.0 12.0 0.00 0.00 0.00
20260901094449 69 284 9.0 7.0 0.00 0.00 0.00
20260901093951 70 300 11.0 10.0 0.00 0.00 0.00
20260901093449 71 205 12.0 7.0 0.00 0.00 0.00
20260901092452 70 260 8.0 9.0 0.00 0.00 0.00
20260901091953 69 301 8.0 6.0 0.00 0.00 0.00
20260901091455 69 215 10.0 11.0 0.00 0.00 0.00
20260901090953 69 252 4.0 7.0 0.00 0.00 0.00
20260901090455 68 270 8.0 5.0 0.00 0.00 0.00
20260901085457 69 278 4.0 3.0 0.00 0.00 0.00
20260901084958 68 260 13.0 8.0 0.00 0.00 0.00
20260901084456 67 263 10.0 7.0 0.00 0.00 0.00
20260901083957 68 257 7.0 7.0 0.00 0.00 0.00
20260901083459 66 233 8.0 9.0 0.00 0.00 0.00
20260901083000 66 277 7.0 6.0 0.00 0.00 0.00
20260901081959 66 273 6.0 8.0 0.00 0.00 0.00
20260901081501 67 211 4.0 4.0 0.00 0.00 0.00
20260901081002 68 246 5.0 6.0 0.00 0.00 0.00
20260901080504 67 226 5.0 5.0 0.00 0.00 0.00